STARLINK-3871, 52496

Orbit data source: Space-Track

STARLINK-3871, 52496 is a payload satellite owned by SpaceX/Seattle (US) in LEO that was launched on Fri, 06 May 2022 UTC via an FALCON 9 launch vehicle from the Air Force Eastern Test Range (AFETR). Payload-class satellites include a variety of spacecraft equipped with specific instruments for various scientific and technological missions. These include communications satellites like Starlink; space stations such as the ISS; scientific satellites like the Hubble; Earth observation satellites from companies like Planet Labs, Umbra, and HawkEye 360; GPS; miniature CubeSats for education and research; and military/defense satellites.

Loading next visibility...
Identifier
52496, 2022-049AX
Orbit
LEO
Country
Flag of USUS
Related business
Manufacturer
SpaceX/Seattle
Mission
Operational Commercial Communications
Bus & Motor
STARLINK, Unknown motor
Mass
297 kg wet, ~220 kg dry
Launch date (UTC)
2022-05-06 (4 years ago)
Launch vehicle
FALCON 9
Launch site
Air Force Eastern Test Range (AFETR)
Object type
Payload
Rocket body
Debris
Shape & HBR
Box + 1 Pan, 10.1 m
Radar Cross Section
13.562 m², Large (>1 m²)

Expand to show TLE details & history
Last TLE update: 18 hours ago

TLE from 18 hours ago
0 STARLINK-3871
1 52496U 22049AX  26206.58335648  .00088289  00000-0  30459-2 0  9999
2 52496  53.1595 143.6216 0000846  88.2525 280.6082 15.29246931  5785
Epoch: 2026-07-25T14:00Z
TLE epoch observation values (Epoch: 2026-07-25T14:00:01.999Z)
Latitude
7.0373°
Longitude
-4.40312°
Altitude
478.215 km
Speed
7.628 km/s
True Right ascension
09h 55m 35s
True Declination
6° 59' 38"
Sunlit
Object was in daylight at epoch
Visualization orbit readout
Latitude
Unknown
Longitude
Unknown
Altitude
Unknown
Speed
Unknown
Apparent Right ascension
Unknown
Apparent Declination
Unknown
Sunlit
N/A
Visualization observer readout
Local Sidereal Time
21:12:04
Azimuth
Unknown
Elevation
Unknown
Doppler factor
Unknown
Orbital elements
Apogee altitude
478.899 km
Perigee altitude
477.739 km
Semi-major axis
6,856.456 km
Eccentricity
0.00008
Inclination
53.1595°
RAAN
143.6216°
Arg. of periapsis
88.2525°
True anomaly
280.59867°
Mean anomaly
280.6082°
Eccentric anomaly
280.60344°
Mean motion
3.82291 °/min
Orbital period
94.17 mins
BSTAR
0.0030459
Loading maneuver chart data...
Computing Atmospheric mass density...
Loading historical data...
Loading historical data...
Loading historical data...
Loading historical data...
Loading historical data...
Loading historical data...
Loading historical data...

Documentation

Showing up to 5 results
|